• In Netherlands
  • List of Countries
  • For 7 days
  • Water Temperature
  • Satellite Maps
  • Weather Map
  • Weather Widgets
  • user-avatar
    Login

    Hourly Weather Lozenec

    Today, 24 August, Thursday

    Time Temperature Precipitation Wind Pressure Humidity
    00:00 +19°C° 0 mm 2 mps 760 mmHg 63%
    01:00 +19°C° 0 mm 2 mps 760 mmHg 61%
    02:00 +18°C° 0 mm 2 mps 760 mmHg 59%
    03:00 +18°C° 0 mm 3 mps 760 mmHg 58%
    04:00 +18°C° 0 mm 3 mps 760 mmHg 56%
    05:00 +17°C° 0 mm 3 mps 760 mmHg 55%
    06:00 +19°C° 0 mm 3 mps 761 mmHg 49%
    07:00 +21°C° 0 mm 3 mps 761 mmHg 44%
    08:00 +24°C° 0 mm 3 mps 761 mmHg 38%
    09:00 +25°C° 0 mm 3 mps 761 mmHg 34%
    10:00 +27°C° 0 mm 3 mps 761 mmHg 30%
    11:00 +29°C° 0 mm 3 mps 762 mmHg 25%
    12:00 +29°C° 0 mm 3 mps 761 mmHg 24%
    13:00 +30°C° 0 mm 3 mps 761 mmHg 23%
    14:00 +31°C° 0 mm 3 mps 761 mmHg 22%
    15:00 +30°C° 0 mm 4 mps 761 mmHg 24%
    16:00 +29°C° 0 mm 4 mps 761 mmHg 27%
    17:00 +29°C° 0 mm 4 mps 761 mmHg 29%
    18:00 +26°C° 0 mm 4 mps 761 mmHg 39%
    19:00 +24°C° 0 mm 3 mps 762 mmHg 49%
    20:00 +20°C° 0 mm 3 mps 762 mmHg 59%
    21:00 +20°C° 0 mm 2 mps 762 mmHg 62%
    22:00 +19°C° 0 mm 2 mps 763 mmHg 66%
    23:00 +20°C° 0 mm 1 mps 763 mmHg 69%

    Tomorrow, 25 August, Friday

    Time Temperature Precipitation Wind Pressure Humidity
    00:00 +20°C° 0 mm 1 mps 763 mmHg 70%
    01:00 +19°C° 0 mm 1 mps 763 mmHg 71%
    02:00 +19°C° 0 mm 1 mps 763 mmHg 72%
    03:00 +19°C° 0 mm 1 mps 763 mmHg 72%
    04:00 +18°C° 0 mm 2 mps 763 mmHg 73%
    05:00 +17°C° 0 mm 2 mps 763 mmHg 73%
    06:00 +20°C° 0 mm 2 mps 763 mmHg 66%
    07:00 +22°C° 0 mm 3 mps 763 mmHg 58%
    08:00 +25°C° 0 mm 3 mps 764 mmHg 51%
    09:00 +26°C° 0 mm 4 mps 764 mmHg 45%
    10:00 +28°C° 0 mm 4 mps 764 mmHg 39%
    11:00 +29°C° 0 mm 5 mps 764 mmHg 33%
    12:00 +30°C° 0 mm 5 mps 763 mmHg 33%
    13:00 +30°C° 0 mm 5 mps 763 mmHg 32%
    14:00 +30°C° 0 mm 6 mps 762 mmHg 31%
    15:00 +29°C° 0 mm 5 mps 762 mmHg 34%
    16:00 +28°C° 0 mm 5 mps 762 mmHg 37%
    17:00 +28°C° 0 mm 5 mps 762 mmHg 40%
    18:00 +25°C° 0 mm 5 mps 762 mmHg 51%
    19:00 +22°C° 0 mm 4 mps 762 mmHg 61%
    20:00 +20°C° 0 mm 4 mps 763 mmHg 72%
    21:00 +20°C° 0 mm 3 mps 763 mmHg 76%
    22:00 +20°C° 0 mm 3 mps 763 mmHg 80%
    23:00 +19°C° 0 mm 3 mps 763 mmHg 84%

    Day after tomorrow, 26 August, Saturday

    Time Temperature Precipitation Wind Pressure Humidity
    00:00 +19°C° 0 mm 3 mps 762 mmHg 84%
    01:00 +19°C° 0 mm 3 mps 762 mmHg 85%
    02:00 +18°C° 0 mm 2 mps 762 mmHg 86%
    03:00 +18°C° 0 mm 2 mps 762 mmHg 86%
    04:00 +18°C° 0 mm 3 mps 762 mmHg 87%
    05:00 +18°C° 0 mm 3 mps 762 mmHg 87%
    06:00 +20°C° 0 mm 3 mps 762 mmHg 79%
    07:00 +22°C° 0 mm 3 mps 762 mmHg 70%
    08:00 +25°C° 0 mm 4 mps 762 mmHg 61%
    09:00 +26°C° 0 mm 4 mps 762 mmHg 55%
    10:00 +28°C° 0 mm 4 mps 762 mmHg 49%
    11:00 +30°C° 0 mm 5 mps 762 mmHg 43%
    12:00 +30°C° 0 mm 5 mps 761 mmHg 42%
    13:00 +30°C° 0 mm 5 mps 761 mmHg 40%
    14:00 +32°C° 0 mm 5 mps 761 mmHg 39%
    15:00 +30°C° 0 mm 5 mps 761 mmHg 42%
    16:00 +29°C° 0 mm 5 mps 761 mmHg 45%
    17:00 +28°C° 0 mm 5 mps 760 mmHg 47%
    18:00 +26°C° 0 mm 5 mps 761 mmHg 58%
    19:00 +23°C° 0 mm 4 mps 761 mmHg 69%
    20:00 +21°C° 0 mm 4 mps 761 mmHg 79%
    21:00 +21°C° 0 mm 4 mps 761 mmHg 82%
    22:00 +20°C° 0 mm 3 mps 761 mmHg 84%
    23:00 +20°C° 0 mm 3 mps 761 mmHg 86%

    27 August, Sunday

    Time Temperature Precipitation Wind Pressure Humidity
    00:00 +20°C° 0 mm 3 mps 760 mmHg 87%
    01:00 +19°C° 0 mm 3 mps 760 mmHg 88%
    02:00 +19°C° 0 mm 3 mps 760 mmHg 89%
    03:00 +19°C° 0 mm 3 mps 760 mmHg 89%
    04:00 +19°C° 0 mm 3 mps 759 mmHg 89%
    05:00 +19°C° 0 mm 3 mps 759 mmHg 90%
    06:00 +20°C° 0 mm 3 mps 759 mmHg 80%
    07:00 +22°C° 0 mm 3 mps 760 mmHg 71%
    08:00 +25°C° 0 mm 3 mps 760 mmHg 62%
    09:00 +27°C° 0 mm 4 mps 760 mmHg 54%
    10:00 +29°C° 0 mm 4 mps 759 mmHg 45%
    11:00 +32°C° 0 mm 5 mps 759 mmHg 37%
    12:00 +32°C° 0 mm 5 mps 759 mmHg 35%
    13:00 +33°C° 0 mm 5 mps 759 mmHg 34%
    14:00 +33°C° 0 mm 5 mps 759 mmHg 32%
    15:00 +32°C° 0 mm 5 mps 758 mmHg 35%
    16:00 +30°C° 0 mm 5 mps 758 mmHg 37%
    17:00 +29°C° 0 mm 5 mps 758 mmHg 40%
    18:00 +27°C° 0 mm 4 mps 758 mmHg 51%
    19:00 +25°C° 0 mm 3 mps 759 mmHg 63%
    20:00 +22°C° 0 mm 3 mps 759 mmHg 74%
    21:00 +21°C° 0 mm 3 mps 759 mmHg 76%
    22:00 +21°C° 0 mm 2 mps 758 mmHg 77%
    23:00 +20°C° 0 mm 2 mps 758 mmHg 79%

    28 August, Monday

    Time Temperature Precipitation Wind Pressure Humidity
    00:00 +20°C° 0 mm 2 mps 758 mmHg 78%
    01:00 +20°C° 0 mm 2 mps 758 mmHg 78%
    02:00 +20°C° 0 mm 2 mps 758 mmHg 78%
    03:00 +20°C° 0 mm 2 mps 758 mmHg 77%
    04:00 +20°C° 0 mm 3 mps 757 mmHg 76%
    05:00 +20°C° 0 mm 3 mps 757 mmHg 75%
    06:00 +22°C° 0 mm 3 mps 758 mmHg 66%
    07:00 +25°C° 0 mm 3 mps 758 mmHg 56%
    08:00 +27°C° 0 mm 3 mps 758 mmHg 47%
    09:00 +29°C° 0 mm 3 mps 758 mmHg 41%
    10:00 +32°C° 0 mm 4 mps 758 mmHg 35%
    11:00 +34°C° 0 mm 4 mps 757 mmHg 29%
    12:00 +34°C° 0 mm 4 mps 757 mmHg 28%
    13:00 +35°C° 0 mm 4 mps 757 mmHg 27%
    14:00 +36°C° 0 mm 4 mps 756 mmHg 26%
    15:00 +35°C° 0 mm 4 mps 756 mmHg 28%
    16:00 +34°C° 0 mm 4 mps 756 mmHg 29%
    17:00 +33°C° 0 mm 3 mps 756 mmHg 31%
    18:00 +30°C° 0 mm 3 mps 756 mmHg 37%
    19:00 +27°C° 0 mm 2 mps 756 mmHg 44%
    20:00 +25°C° 0 mm 1 mps 756 mmHg 51%
    21:00 +24°C° 0 mm 1 mps 756 mmHg 51%
    22:00 +24°C° 0 mm 1 mps 756 mmHg 50%
    23:00 +24°C° 0 mm 1 mps 756 mmHg 50%

    29 August, Tuesday

    Time Temperature Precipitation Wind Pressure Humidity
    00:00 +24°C° 0 mm 1 mps 756 mmHg 50%
    01:00 +24°C° 0 mm 1 mps 756 mmHg 49%
    02:00 +23°C° 0 mm 2 mps 755 mmHg 49%
    03:00 +23°C° 0 mm 2 mps 755 mmHg 48%
    04:00 +23°C° 0 mm 2 mps 756 mmHg 48%
    05:00 +23°C° 0 mm 2 mps 756 mmHg 47%
    06:00 +26°C° 0 mm 2 mps 756 mmHg 43%
    07:00 +28°C° 0 mm 2 mps 756 mmHg 38%
    08:00 +30°C° 0 mm 2 mps 756 mmHg 34%
    09:00 +33°C° 0 mm 3 mps 756 mmHg 30%
    10:00 +35°C° 0 mm 3 mps 756 mmHg 27%
    11:00 +37°C° 0 mm 4 mps 756 mmHg 23%
    12:00 +37°C° 0 mm 5 mps 756 mmHg 25%
    13:00 +37°C° 0 mm 5 mps 756 mmHg 27%
    14:00 +38°C° 0 mm 6 mps 756 mmHg 28%
    15:00 +35°C° 0 mm 6 mps 756 mmHg 37%
    16:00 +33°C° 0 mm 6 mps 756 mmHg 45%
    17:00 +30°C° 0 mm 6 mps 756 mmHg 54%
    18:00 +29°C° 0 mm 6 mps 756 mmHg 62%
    19:00 +27°C° 0 mm 5 mps 757 mmHg 70%
    20:00 +25°C° 0 mm 4 mps 757 mmHg 78%
    21:00 +25°C° 0 mm 4 mps 758 mmHg 79%
    22:00 +25°C° 0 mm 4 mps 758 mmHg 80%
    23:00 +25°C° 0 mm 4 mps 758 mmHg 81%
    Show more